Tracking 31027 objects as of 19-Jul-2025
HD Live streaming from Space Station
objects crossing your sky now

DMSP 5D-2 F13 DEB

Track DMSP 5D-2 F13 DEB now!
10-day predictions


NORAD ID: 42266
Int'l Code: 1995-015GG
Perigee: 738.3 km
Apogee: 772.3 km
Inclination: 98.6 °
Period: 99.8 minutes
Semi major axis: 7126 km
RCS: Unknown
Launch date: March 24, 1995
Source: United States (US)
Launch site: AIR FORCE WESTERN TEST RANGE (AFWTR)

Note: This is SATELLITE DEBRIS
Your satellite tracking list
FLOCK 3P 17
Track 1 satellite(s)




NASA's NSSDC Master Catalog

Two Line Element Set (TLE):
1 42266U 95015GG  25197.55783539  .00003804  00000-0  11418-2 0  9991
2 42266  98.6033 236.8546 0023862 198.2156 161.8181 14.43139440525133
Source of the keplerian elements: AFSPC